| time (UTC) | temp F | wind direction | speed MPH | gust MPH | rain 1hr in | rain 24hr in | rain mn in | humidity % | barometer mb |
| 20260504110543 | 32 | 55 | 0.0 | 0.0 | 0.00 | 0.00 | 0.00 | 99 | 1013.5 |
| 20260504100505 | 31 | 54 | 1.0 | 1.0 | 0.00 | 0.00 | 0.00 | 98 | 1013.4 |
| 20260504081858 | 32 | 55 | 1.0 | 1.0 | 0.00 | 0.00 | 0.00 | 97 | 1013.5 |
| 20260504081354 | 32 | 55 | 0.0 | 1.0 | 0.00 | 0.00 | 0.00 | 97 | 1013.4 |
| 20260504080850 | 32 | 55 | 1.0 | 1.0 | 0.00 | 0.00 | 0.00 | 97 | 1013.5 |
| 20260504080348 | 32 | 55 | 0.0 | 1.0 | 0.00 | 0.00 | 0.00 | 97 | 1013.4 |
| 20260504070315 | 33 | 55 | 0.0 | 0.0 | 0.00 | 0.00 | 0.00 | 96 | 1013.2 |
| 20260504060235 | 34 | 55 | 2.0 | 2.0 | 0.00 | 0.00 | 0.00 | 95 | 1013.4 |
| 20260504050703 | 35 | 53 | 1.0 | 2.0 | 0.00 | 0.00 | 0.00 | 94 | 1013.3 |
| 20260504050200 | 35 | 55 | 1.0 | 1.0 | 0.00 | 0.00 | 0.00 | 94 | 1013.2 |
| 20260504045657 | 35 | 55 | 1.0 | 1.0 | 0.00 | 0.00 | 0.00 | 94 | 1013.4 |
| 20260504045152 | 36 | 56 | 1.0 | 2.0 | 0.00 | 0.00 | 0.00 | 94 | 1013.4 |
| 20260504044650 | 36 | 56 | 1.0 | 1.0 | 0.00 | 0.00 | 0.00 | 94 | 1013.2 |
| 20260504044147 | 36 | 56 | 0.0 | 1.0 | 0.00 | 0.00 | 0.00 | 94 | 1013.4 |
| 20260504043644 | 36 | 56 | 1.0 | 1.0 | 0.00 | 0.00 | 0.00 | 94 | 1013.2 |
| 20260504043141 | 36 | 56 | 1.0 | 2.0 | 0.00 | 0.00 | 0.00 | 94 | 1013.3 |
| 20260504042638 | 36 | 56 | 1.0 | 1.0 | 0.00 | 0.00 | 0.00 | 93 | 1013.2 |
| 20260504042135 | 37 | 56 | 1.0 | 1.0 | 0.00 | 0.00 | 0.00 | 93 | 1013.2 |
| 20260504041630 | 37 | 55 | 1.0 | 1.0 | 0.00 | 0.00 | 0.00 | 93 | 1013.4 |
| 20260504041127 | 37 | 55 | 1.0 | 1.0 | 0.00 | 0.00 | 0.00 | 93 | 1013.1 |
| 20260504040624 | 37 | 55 | 0.0 | 0.0 | 0.00 | 0.00 | 0.00 | 93 | 1013.2 |
| 20260504040121 | 38 | 56 | 1.0 | 1.0 | 0.00 | 0.00 | 0.00 | 93 | 1013.1 |
| 20260504035618 | 38 | 56 | 0.0 | 0.0 | 0.00 | 0.00 | 0.00 | 93 | 1013.3 |
| 20260504035114 | 38 | 56 | 0.0 | 1.0 | 0.00 | 0.00 | 0.00 | 92 | 1013.3 |
| 20260504034612 | 38 | 56 | 0.0 | 2.0 | 0.00 | 0.00 | 0.00 | 92 | 1012.9 |
| 20260504034109 | 38 | 56 | 0.0 | 1.0 | 0.00 | 0.00 | 0.00 | 92 | 1013.0 |
| 20260504033607 | 39 | 56 | 1.0 | 3.0 | 0.00 | 0.00 | 0.00 | 92 | 1013.1 |
| 20260504033103 | 39 | 55 | 1.0 | 1.0 | 0.00 | 0.00 | 0.00 | 91 | 1013.1 |
| 20260504032600 | 39 | 55 | 1.0 | 1.0 | 0.00 | 0.00 | 0.00 | 91 | 1013.0 |
| 20260504032057 | 40 | 55 | 1.0 | 1.0 | 0.00 | 0.00 | 0.00 | 90 | 1013.0 |
| 20260504031554 | 40 | 55 | 1.0 | 2.0 | 0.00 | 0.00 | 0.00 | 90 | 1013.0 |
| 20260504031050 | 40 | 55 | 0.0 | 0.0 | 0.00 | 0.00 | 0.00 | 90 | 1013.2 |
| 20260504030548 | 41 | 55 | 2.0 | 3.0 | 0.00 | 0.00 | 0.00 | 89 | 1012.8 |
| 20260504030044 | 41 | 56 | 1.0 | 2.0 | 0.00 | 0.00 | 0.00 | 89 | 1013.1 |
| 20260504025541 | 41 | 55 | 1.0 | 2.0 | 0.00 | 0.00 | 0.00 | 88 | 1013.2 |
| 20260504025038 | 41 | 55 | 2.0 | 2.0 | 0.00 | 0.00 | 0.00 | 88 | 1013.1 |
| 20260504024535 | 41 | 50 | 3.0 | 3.0 | 0.00 | 0.00 | 0.00 | 88 | 1013.2 |
| 20260504024032 | 41 | 56 | 1.0 | 1.0 | 0.00 | 0.00 | 0.00 | 88 | 1013.3 |
| 20260504023528 | 42 | 56 | 1.0 | 1.0 | 0.00 | 0.00 | 0.00 | 88 | 1013.2 |
| 20260504023024 | 42 | 56 | 2.0 | 3.0 | 0.00 | 0.00 | 0.00 | 87 | 1013.1 |
| 20260504022520 | 42 | 56 | 2.0 | 3.0 | 0.00 | 0.00 | 0.00 | 87 | 1013.1 |
| 20260504022017 | 42 | 56 | 0.0 | 1.0 | 0.00 | 0.00 | 0.00 | 86 | 1013.1 |
| 20260504021515 | 43 | 56 | 0.0 | 0.0 | 0.00 | 0.00 | 0.00 | 85 | 1013.1 |
| 20260504021012 | 43 | 56 | 0.0 | 0.0 | 0.00 | 0.00 | 0.00 | 84 | 1012.8 |
| 20260504020508 | 43 | 56 | 0.0 | 0.0 | 0.00 | 0.00 | 0.00 | 84 | 1013.1 |
| 20260504020005 | 43 | 56 | 1.0 | 1.0 | 0.00 | 0.00 | 0.00 | 84 | 1013.0 |
| 20260504015501 | 43 | 56 | 3.0 | 3.0 | 0.00 | 0.00 | 0.00 | 83 | 1013.0 |
| 20260504014957 | 43 | 56 | 0.0 | 1.0 | 0.00 | 0.00 | 0.00 | 82 | 1012.8 |
| 20260504014453 | 43 | 56 | 1.0 | 1.0 | 0.00 | 0.00 | 0.00 | 83 | 1012.9 |
| 20260504013950 | 43 | 56 | 1.0 | 1.0 | 0.00 | 0.00 | 0.00 | 82 | 1013.1 |
| 20260504013449 | 43 | 56 | 0.0 | 0.0 | 0.00 | 0.00 | 0.00 | 81 | 1013.0 |
| 20260504012944 | 43 | 56 | 1.0 | 1.0 | 0.00 | 0.00 | 0.00 | 81 | 1012.8 |
| 20260504012443 | 43 | 56 | 2.0 | 2.0 | 0.00 | 0.00 | 0.00 | 81 | 1012.8 |
| 20260504011940 | 43 | 56 | 1.0 | 2.0 | 0.00 | 0.00 | 0.00 | 81 | 1012.8 |
| 20260504011436 | 43 | 56 | 0.0 | 0.0 | 0.00 | 0.00 | 0.00 | 81 | 1012.6 |
| 20260504010932 | 43 | 56 | 1.0 | 1.0 | 0.00 | 0.00 | 0.00 | 81 | 1012.7 |
| 20260504010428 | 44 | 56 | 1.0 | 2.0 | 0.00 | 0.00 | 0.00 | 81 | 1012.5 |
| 20260504005925 | 44 | 55 | 1.0 | 2.0 | 0.00 | 0.00 | 0.00 | 79 | 1012.6 |
| 20260504005421 | 44 | 55 | 1.0 | 1.0 | 0.00 | 0.00 | 0.00 | 78 | 1012.5 |
| 20260504004919 | 44 | 56 | 1.0 | 1.0 | 0.00 | 0.00 | 0.00 | 76 | 1012.4 |
| 20260504004417 | 44 | 57 | 2.0 | 2.0 | 0.00 | 0.00 | 0.00 | 75 | 1012.5 |
| 20260504003913 | 45 | 57 | 0.0 | 0.0 | 0.00 | 0.00 | 0.00 | 73 | 1012.8 |
| 20260504003410 | 44 | 57 | 1.0 | 2.0 | 0.00 | 0.00 | 0.00 | 74 | 1012.5 |
| 20260504002906 | 45 | 57 | 1.0 | 2.0 | 0.00 | 0.00 | 0.00 | 73 | 1012.5 |
| 20260504002403 | 45 | 56 | 1.0 | 5.0 | 0.00 | 0.00 | 0.00 | 72 | 1012.4 |
| 20260504001901 | 46 | 57 | 1.0 | 2.0 | 0.00 | 0.00 | 0.00 | 72 | 1011.9 |
| 20260504001358 | 46 | 56 | 2.0 | 2.0 | 0.00 | 0.00 | 0.00 | 71 | 1012.0 |
| 20260504000855 | 47 | 57 | 1.0 | 3.0 | 0.00 | 0.00 | 0.00 | 70 | 1012.2 |
| 20260504000354 | 48 | 56 | 1.0 | 2.0 | 0.00 | 0.00 | 0.00 | 68 | 1011.8 |
| 20260503235849 | 49 | 56 | 0.0 | 0.0 | 0.00 | 0.00 | 0.00 | 67 | 1011.8 |
| 20260503235347 | 49 | 56 | 0.0 | 0.0 | 0.00 | 0.00 | 0.00 | 62 | 1011.9 |
| 20260503234844 | 51 | 56 | 0.0 | 0.0 | 0.00 | 0.00 | 0.00 | 63 | 1012.0 |
| 20260503234342 | 51 | 57 | 1.0 | 5.0 | 0.00 | 0.00 | 0.00 | 59 | 1012.0 |
| 20260503233839 | 53 | 43 | 1.0 | 2.0 | 0.00 | 0.00 | 0.00 | 58 | 1012.1 |
| 20260503233335 | 53 | 58 | 2.0 | 2.0 | 0.00 | 0.00 | 0.00 | 50 | 1011.8 |
| 20260503232832 | 53 | 61 | 2.0 | 2.0 | 0.00 | 0.00 | 0.00 | 48 | 1012.0 |
| 20260503232329 | 53 | 61 | 1.0 | 5.0 | 0.00 | 0.00 | 0.00 | 51 | 1012.0 |
| 20260503231827 | 53 | 12 | 2.0 | 2.0 | 0.00 | 0.00 | 0.00 | 48 | 1012.1 |
| 20260503231324 | 53 | 91 | 3.0 | 5.0 | 0.00 | 0.00 | 0.00 | 49 | 1011.9 |
| 20260503230820 | 53 | 309 | 2.0 | 2.0 | 0.00 | 0.00 | 0.00 | 48 | 1011.9 |
| 20260503230317 | 53 | 59 | 1.0 | 3.0 | 0.00 | 0.00 | 0.00 | 49 | 1011.8 |
| 20260503225815 | 53 | 99 | 2.0 | 2.0 | 0.00 | 0.00 | 0.00 | 50 | 1011.8 |
| 20260503225310 | 54 | 50 | 1.0 | 2.0 | 0.00 | 0.00 | 0.00 | 48 | 1011.8 |
| 20260503224807 | 54 | 254 | 3.0 | 3.0 | 0.00 | 0.00 | 0.00 | 49 | 1011.9 |
| 20260503224304 | 54 | 1 | 3.0 | 3.0 | 0.00 | 0.00 | 0.00 | 46 | 1011.9 |
| 20260503223802 | 55 | 248 | 6.0 | 9.0 | 0.00 | 0.00 | 0.00 | 45 | 1012.1 |
| 20260503223259 | 55 | 47 | 1.0 | 2.0 | 0.00 | 0.00 | 0.00 | 44 | 1011.9 |
| 20260503222755 | 55 | 6 | 4.0 | 7.0 | 0.00 | 0.00 | 0.00 | 46 | 1011.9 |
| 20260503222253 | 55 | 343 | 9.0 | 11.0 | 0.00 | 0.00 | 0.00 | 44 | 1012.1 |
| 20260503221751 | 56 | 199 | 4.0 | 5.0 | 0.00 | 0.00 | 0.00 | 44 | 1011.8 |
| 20260503221249 | 56 | 69 | 1.0 | 2.0 | 0.00 | 0.00 | 0.00 | 45 | 1011.9 |
| 20260503220745 | 55 | 216 | 2.0 | 2.0 | 0.00 | 0.00 | 0.00 | 44 | 1012.1 |
| 20260503220242 | 55 | 18 | 1.0 | 1.0 | 0.00 | 0.00 | 0.00 | 46 | 1011.9 |
| 20260503215739 | 56 | 16 | 2.0 | 5.0 | 0.00 | 0.00 | 0.00 | 46 | 1012.0 |
| 20260503215236 | 55 | 323 | 5.0 | 8.0 | 0.00 | 0.00 | 0.00 | 46 | 1012.0 |
| 20260503214734 | 55 | 11 | 7.0 | 10.0 | 0.00 | 0.00 | 0.00 | 47 | 1012.0 |
| 20260503214231 | 54 | 340 | 2.0 | 3.0 | 0.00 | 0.00 | 0.00 | 47 | 1011.9 |
| 20260503213729 | 55 | 321 | 4.0 | 5.0 | 0.00 | 0.00 | 0.00 | 46 | 1011.9 |
| 20260503213226 | 54 | 335 | 9.0 | 11.0 | 0.00 | 0.00 | 0.00 | 46 | 1012.0 |
| 20260503212722 | 54 | 301 | 4.0 | 5.0 | 0.00 | 0.00 | 0.00 | 48 | 1012.0 |
| 20260503212220 | 55 | 311 | 8.0 | 10.0 | 0.00 | 0.00 | 0.00 | 45 | 1011.8 |
| 20260503211718 | 55 | 25 | 12.0 | 15.0 | 0.00 | 0.00 | 0.00 | 45 | 1011.8 |
| 20260503211214 | 54 | 318 | 5.0 | 9.0 | 0.00 | 0.00 | 0.00 | 46 | 1011.9 |
| 20260503210710 | 54 | 288 | 5.0 | 7.0 | 0.00 | 0.00 | 0.00 | 46 | 1011.9 |
| 20260503210207 | 53 | 327 | 7.0 | 8.0 | 0.00 | 0.00 | 0.00 | 46 | 1012.2 |
| 20260503205702 | 53 | 11 | 7.0 | 11.0 | 0.00 | 0.00 | 0.00 | 46 | 1011.9 |
| 20260503205158 | 54 | 286 | 12.0 | 16.0 | 0.00 | 0.00 | 0.00 | 45 | 1012.0 |
| 20260503204655 | 54 | 190 | 4.0 | 9.0 | 0.00 | 0.00 | 0.00 | 43 | 1012.0 |
| 20260503204153 | 53 | 277 | 8.0 | 11.0 | 0.00 | 0.00 | 0.00 | 43 | 1012.2 |
| 20260503203649 | 53 | 322 | 8.0 | 10.0 | 0.00 | 0.00 | 0.00 | 42 | 1012.1 |
| 20260503203147 | 54 | 323 | 10.0 | 10.0 | 0.00 | 0.00 | 0.00 | 41 | 1011.9 |
| 20260503202644 | 55 | 345 | 12.0 | 15.0 | 0.00 | 0.00 | 0.00 | 40 | 1011.7 |
| 20260503202142 | 56 | 273 | 5.0 | 7.0 | 0.00 | 0.00 | 0.00 | 42 | 1011.6 |
| 20260503201640 | 55 | 325 | 7.0 | 13.0 | 0.00 | 0.00 | 0.00 | 40 | 1011.6 |
| 20260503201137 | 55 | 357 | 12.0 | 15.0 | 0.00 | 0.00 | 0.00 | 40 | 1011.7 |
| 20260503200633 | 54 | 315 | 9.0 | 10.0 | 0.00 | 0.00 | 0.00 | 40 | 1011.7 |
| 20260503200130 | 55 | 40 | 7.0 | 9.0 | 0.00 | 0.00 | 0.00 | 41 | 1011.8 |
| 20260503195627 | 54 | 280 | 4.0 | 8.0 | 0.00 | 0.00 | 0.00 | 40 | 1011.8 |
| 20260503195124 | 55 | 39 | 4.0 | 5.0 | 0.00 | 0.00 | 0.00 | 38 | 1011.8 |
| 20260503194621 | 55 | 353 | 6.0 | 7.0 | 0.00 | 0.00 | 0.00 | 40 | 1011.7 |
| 20260503194116 | 54 | 332 | 7.0 | 8.0 | 0.00 | 0.00 | 0.00 | 40 | 1012.0 |
| 20260503193613 | 54 | 334 | 4.0 | 6.0 | 0.00 | 0.00 | 0.00 | 39 | 1011.9 |
| 20260503193108 | 53 | 66 | 1.0 | 2.0 | 0.00 | 0.00 | 0.00 | 38 | 1012.2 |
| 20260503192604 | 53 | 307 | 6.0 | 7.0 | 0.00 | 0.00 | 0.00 | 40 | 1012.3 |
| 20260503192100 | 53 | 342 | 6.0 | 8.0 | 0.00 | 0.00 | 0.00 | 42 | 1012.3 |
| 20260503191557 | 54 | 358 | 5.0 | 7.0 | 0.00 | 0.00 | 0.00 | 40 | 1012.1 |
| 20260503191054 | 53 | 335 | 5.0 | 7.0 | 0.00 | 0.00 | 0.00 | 40 | 1012.4 |
| 20260503190551 | 53 | 4 | 4.0 | 5.0 | 0.00 | 0.00 | 0.00 | 41 | 1012.4 |
| 20260503190048 | 53 | 340 | 5.0 | 11.0 | 0.00 | 0.00 | 0.00 | 46 | 1012.4 |
| 20260503185545 | 53 | 325 | 12.0 | 14.0 | 0.00 | 0.00 | 0.00 | 41 | 1012.6 |
| 20260503185044 | 52 | 313 | 4.0 | 6.0 | 0.00 | 0.00 | 0.00 | 43 | 1012.7 |
| 20260503184540 | 54 | 341 | 7.0 | 9.0 | 0.00 | 0.00 | 0.00 | 41 | 1012.8 |
| 20260503184037 | 52 | 327 | 9.0 | 13.0 | 0.00 | 0.00 | 0.00 | 39 | 1012.9 |
| 20260503183534 | 52 | 335 | 7.0 | 10.0 | 0.00 | 0.00 | 0.00 | 42 | 1012.9 |
| 20260503183031 | 53 | 358 | 8.0 | 9.0 | 0.00 | 0.00 | 0.00 | 39 | 1013.0 |
| 20260503182529 | 53 | 14 | 7.0 | 13.0 | 0.00 | 0.00 | 0.00 | 45 | 1013.2 |
| 20260503182027 | 53 | 3 | 9.0 | 13.0 | 0.00 | 0.00 | 0.00 | 42 | 1013.4 |
| 20260503181524 | 52 | 22 | 9.0 | 14.0 | 0.00 | 0.00 | 0.00 | 42 | 1013.1 |
| 20260503181020 | 52 | 321 | 3.0 | 5.0 | 0.00 | 0.00 | 0.00 | 43 | 1013.2 |
| 20260503180518 | 51 | 346 | 11.0 | 13.0 | 0.00 | 0.00 | 0.00 | 42 | 1013.3 |
| 20260503180015 | 50 | 3 | 7.0 | 8.0 | 0.00 | 0.00 | 0.00 | 42 | 1013.3 |
| 20260503175512 | 49 | 10 | 3.0 | 5.0 | 0.00 | 0.00 | 0.00 | 44 | 1013.1 |
| 20260503175009 | 49 | 358 | 4.0 | 6.0 | 0.00 | 0.00 | 0.00 | 44 | 1013.5 |
| 20260503174507 | 50 | 306 | 7.0 | 8.0 | 0.00 | 0.00 | 0.00 | 43 | 1013.6 |
| 20260503174002 | 49 | 12 | 5.0 | 5.0 | 0.00 | 0.00 | 0.00 | 43 | 1013.6 |
| 20260503173457 | 50 | 345 | 3.0 | 9.0 | 0.00 | 0.00 | 0.00 | 45 | 1013.4 |
| 20260503172954 | 51 | 343 | 8.0 | 13.0 | 0.00 | 0.00 | 0.00 | 44 | 1013.6 |
| 20260503172452 | 50 | 336 | 2.0 | 3.0 | 0.00 | 0.00 | 0.00 | 45 | 1013.3 |
| 20260503171948 | 50 | 34 | 9.0 | 10.0 | 0.00 | 0.00 | 0.00 | 44 | 1013.7 |
| 20260503171445 | 49 | 172 | 6.0 | 10.0 | 0.00 | 0.00 | 0.00 | 45 | 1013.7 |
| 20260503170943 | 49 | 307 | 7.0 | 13.0 | 0.00 | 0.00 | 0.00 | 42 | 1013.4 |
| 20260503170438 | 50 | 80 | 3.0 | 6.0 | 0.00 | 0.00 | 0.00 | 43 | 1013.9 |
| 20260503150831 | 45 | 356 | 6.0 | 8.0 | 0.00 | 0.00 | 0.00 | 49 | 1014.5 |
| 20260503150327 | 47 | 307 | 2.0 | 3.0 | 0.00 | 0.00 | 0.00 | 52 | 1014.6 |
| 20260503140251 | 42 | 33 | 4.0 | 6.0 | 0.00 | 0.00 | 0.00 | 55 | 1014.6 |
| 20260503131221 | 41 | 256 | 3.0 | 5.0 | 0.00 | 0.00 | 0.00 | 66 | 1014.8 |
| 20260503130719 | 41 | 345 | 5.0 | 6.0 | 0.00 | 0.00 | 0.00 | 68 | 1014.8 |
| 20260503130216 | 41 | 348 | 7.0 | 10.0 | 0.00 | 0.00 | 0.00 | 68 | 1014.8 |
| 20260503120141 | 38 | 50 | 1.0 | 2.0 | 0.00 | 0.00 | 0.00 | 82 | 1014.7 |